Terug naar catalogus

STARLINK-37582

ActiefCommunicatieVLEO
NORAD 69363·PAYLOAD·🇺🇸 United States

Gelanceerd Jun 4, 2026 vanaf Cape Canaveral Space Force Station

Loading…

Volgende Passages (komende 24 uur)

TLE

VersSource: CelesTrak SupGP

Epoch: Sep 14, 2026, 21:37 UTC

1 69363C 26123L   26257.90118056 -.00042722  00000+0 -12618-2 0  2578
2 69363  53.1585 167.9902 0001314  87.6719 117.8504 15.34421748    13

Volg STARLINK-37582 in realtime met AllMySat

Download on the App Store